Time,TemperatureF,DewpointF,PressureIn,WindDirection,WindDirectionDegrees,WindSpeedMPH,WindSpeedGustMPH,Humidity,HourlyPrecipIn,Conditions,Clouds,dailyrainin,SoftwareType,DateUTC
2013-07-11 00:03:00,67.3,63.6,29.89,NNW,331,2.0,3.0,88,0.00,,,0.00,Wunderground v.1.15,2013-07-11 04:03:00,
2013-07-11 00:08:00,67.1,63.7,29.89,NW,315,3.0,4.0,89,0.00,,,0.00,Wunderground v.1.15,2013-07-11 04:08:00,
2013-07-11 00:13:00,66.9,63.6,29.89,NW,315,3.0,4.0,89,0.00,,,0.00,Wunderground v.1.15,2013-07-11 04:13:00,
2013-07-11 00:23:00,66.5,62.8,29.90,NW,317,3.0,3.0,88,0.00,,,0.00,Wunderground v.1.15,2013-07-11 04:23:00,
2013-07-11 00:33:00,66.3,62.6,29.90,NW,317,2.0,3.0,88,0.00,,,0.00,Wunderground v.1.15,2013-07-11 04:33:00,
2013-07-11 00:43:00,66.2,62.2,29.90,NW,317,1.0,1.0,87,0.00,,,0.00,Wunderground v.1.15,2013-07-11 04:43:00,
2013-07-11 00:48:00,66.1,62.4,29.90,NW,317,2.0,2.0,88,0.00,,,0.00,Wunderground v.1.15,2013-07-11 04:48:00,
2013-07-11 00:53:00,66.0,62.3,29.90,NW,317,2.0,2.0,88,0.00,,,0.00,Wunderground v.1.15,2013-07-11 04:53:00,
2013-07-11 00:58:00,65.9,62.6,29.90,NW,317,2.0,2.0,89,0.00,,,0.00,Wunderground v.1.15,2013-07-11 04:58:00,
2013-07-11 01:08:00,65.9,62.6,29.90,WNW,296,3.0,3.0,89,0.00,,,0.00,Wunderground v.1.15,2013-07-11 05:08:00,
2013-07-11 01:18:00,65.8,62.5,29.90,WNW,296,2.0,3.0,89,0.00,,,0.00,Wunderground v.1.15,2013-07-11 05:18:00,
2013-07-11 01:28:00,65.7,62.0,29.90,NW,316,2.0,2.0,88,0.00,,,0.00,Wunderground v.1.15,2013-07-11 05:28:00,
2013-07-11 01:38:00,65.5,61.5,29.90,NNW,344,3.0,3.0,87,0.00,,,0.00,Wunderground v.1.15,2013-07-11 05:38:00,
2013-07-11 01:43:00,65.4,61.1,29.90,North,350,3.0,4.0,86,0.00,,,0.00,Wunderground v.1.15,2013-07-11 05:43:00,
2013-07-11 01:48:00,65.3,60.7,29.90,North,5,3.0,3.0,85,0.00,,,0.00,Wunderground v.1.15,2013-07-11 05:48:00,
2013-07-11 01:58:00,65.3,60.7,29.89,NNE,12,3.0,3.0,85,0.00,,,0.00,Wunderground v.1.15,2013-07-11 05:58:00,
2013-07-11 02:03:00,65.2,60.6,29.89,NNE,22,3.0,4.0,85,0.00,,,0.00,Wunderground v.1.15,2013-07-11 06:03:00,
2013-07-11 02:13:00,64.8,60.2,29.90,NNE,13,3.0,3.0,85,0.00,,,0.00,Wunderground v.1.15,2013-07-11 06:13:00,
2013-07-11 02:23:00,64.6,60.3,29.90,North,10,2.0,2.0,86,0.00,,,0.00,Wunderground v.1.15,2013-07-11 06:23:00,
2013-07-11 02:33:00,64.4,59.8,29.91,North,5,3.0,3.0,85,0.00,,,0.00,Wunderground v.1.15,2013-07-11 06:33:00,
2013-07-11 02:38:00,64.3,59.7,29.91,North,5,2.0,2.0,85,0.00,,,0.00,Wunderground v.1.15,2013-07-11 06:38:00,
2013-07-11 02:48:00,64.3,60.0,29.91,North,5,2.0,2.0,86,0.00,,,0.00,Wunderground v.1.15,2013-07-11 06:48:00,
2013-07-11 02:58:00,64.2,59.9,29.91,NNW,348,3.0,3.0,86,0.00,,,0.00,Wunderground v.1.15,2013-07-11 06:58:00,
2013-07-11 03:08:00,64.2,59.9,29.91,NW,321,4.0,4.0,86,0.00,,,0.00,Wunderground v.1.15,2013-07-11 07:08:00,
2013-07-11 03:18:00,64.3,60.3,29.92,NNW,343,3.0,3.0,87,0.00,,,0.00,Wunderground v.1.15,2013-07-11 07:18:00,
2013-07-11 03:23:00,64.3,60.3,29.92,NNW,342,3.0,3.0,87,0.00,,,0.00,Wunderground v.1.15,2013-07-11 07:23:00,
2013-07-11 03:33:00,64.1,59.8,29.92,NNW,342,3.0,4.0,86,0.00,,,0.00,Wunderground v.1.15,2013-07-11 07:33:00,
2013-07-11 03:38:00,64.1,60.2,29.92,NNW,338,3.0,3.0,87,0.00,,,0.00,Wunderground v.1.15,2013-07-11 07:38:00,
2013-07-11 03:48:00,64.0,59.7,29.92,North,355,4.0,4.0,86,0.00,,,0.00,Wunderground v.1.15,2013-07-11 07:48:00,
2013-07-11 03:58:00,63.8,59.5,29.93,NNW,346,3.0,3.0,86,0.00,,,0.00,Wunderground v.1.15,2013-07-11 07:58:00,
2013-07-11 04:08:00,63.4,59.1,29.93,NNW,346,4.0,5.0,86,0.00,,,0.00,Wunderground v.1.15,2013-07-11 08:08:00,
2013-07-11 04:13:00,63.2,58.9,29.92,North,5,4.0,5.0,86,0.00,,,0.00,Wunderground v.1.15,2013-07-11 08:13:00,
2013-07-11 04:23:00,63.0,58.7,29.93,North,350,4.0,4.0,86,0.00,,,0.00,Wunderground v.1.15,2013-07-11 08:23:00,
2013-07-11 04:28:00,62.8,58.5,29.93,NNW,345,3.0,3.0,86,0.00,,,0.00,Wunderground v.1.15,2013-07-11 08:28:00,
2013-07-11 04:38:00,62.5,58.6,29.93,NNW,342,3.0,3.0,87,0.00,,,0.00,Wunderground v.1.15,2013-07-11 08:38:00,
2013-07-11 04:48:00,62.2,58.3,29.93,NNW,336,4.0,5.0,87,0.00,,,0.00,Wunderground v.1.15,2013-07-11 08:48:00,
2013-07-11 04:58:00,62.2,58.6,29.94,NNW,333,3.0,3.0,88,0.00,,,0.00,Wunderground v.1.15,2013-07-11 08:58:00,
2013-07-11 05:08:00,62.1,58.5,29.94,North,355,2.0,2.0,88,0.00,,,0.00,Wunderground v.1.15,2013-07-11 09:08:00,
2013-07-11 05:13:00,62.2,58.6,29.94,North,355,2.0,2.0,88,0.00,,,0.00,Wunderground v.1.15,2013-07-11 09:13:00,
2013-07-11 05:23:00,62.2,58.6,29.94,NNW,343,2.0,2.0,88,0.00,,,0.00,Wunderground v.1.15,2013-07-11 09:23:00,
2013-07-11 05:33:00,62.2,58.6,29.94,North,355,2.0,4.0,88,0.00,,,0.00,Wunderground v.1.15,2013-07-11 09:33:00,
2013-07-11 05:43:00,62.2,58.6,29.95,North,5,2.0,3.0,88,0.00,,,0.00,Wunderground v.1.15,2013-07-11 09:43:00,
2013-07-11 05:53:00,62.2,58.6,29.95,North,355,2.0,3.0,88,0.00,,,0.00,Wunderground v.1.15,2013-07-11 09:53:00,
2013-07-11 05:58:00,62.2,58.6,29.95,North,5,3.0,3.0,88,0.00,,,0.00,Wunderground v.1.15,2013-07-11 09:58:00,
2013-07-11 06:08:00,62.3,58.7,29.96,North,355,3.0,3.0,88,0.00,,,0.00,Wunderground v.1.15,2013-07-11 10:08:00,
2013-07-11 06:13:00,62.3,58.7,29.96,North,355,2.0,3.0,88,0.00,,,0.00,Wunderground v.1.15,2013-07-11 10:13:00,
2013-07-11 06:23:00,62.5,58.9,29.97,North,355,2.0,2.0,88,0.00,,,0.00,Wunderground v.1.15,2013-07-11 10:23:00,
2013-07-11 06:33:00,62.6,59.3,29.97,North,11,1.0,1.0,89,0.00,,,0.00,Wunderground v.1.15,2013-07-11 10:33:00,
2013-07-11 06:43:00,62.7,59.4,29.97,North,11,1.0,1.0,89,0.00,,,0.00,Wunderground v.1.15,2013-07-11 10:43:00,
2013-07-11 06:53:00,62.8,59.5,29.98,North,11,0.0,1.0,89,0.00,,,0.00,Wunderground v.1.15,2013-07-11 10:53:00,
2013-07-11 06:58:00,63.0,59.7,29.98,North,11,1.0,1.0,89,0.00,,,0.00,Wunderground v.1.15,2013-07-11 10:58:00,
2013-07-11 07:08:00,63.2,59.9,29.98,North,5,1.0,2.0,89,0.00,,,0.00,Wunderground v.1.15,2013-07-11 11:08:00,
2013-07-11 07:13:00,63.4,60.1,29.98,NNE,24,2.0,2.0,89,0.00,,,0.00,Wunderground v.1.15,2013-07-11 11:13:00,
2013-07-11 07:23:00,63.6,60.0,29.99,North,355,2.0,2.0,88,0.00,,,0.00,Wunderground v.1.15,2013-07-11 11:23:00,
2013-07-11 07:33:00,63.8,60.2,29.99,NNW,346,1.0,2.0,88,0.00,,,0.00,Wunderground v.1.15,2013-07-11 11:33:00,
2013-07-11 07:43:00,64.0,60.4,29.99,NNW,348,1.0,2.0,88,0.00,,,0.00,Wunderground v.1.15,2013-07-11 11:43:00,
2013-07-11 07:48:00,64.3,60.7,29.99,NNW,345,2.0,2.0,88,0.00,,,0.00,Wunderground v.1.15,2013-07-11 11:48:00,
2013-07-11 07:58:00,64.6,60.6,29.99,North,355,2.0,2.0,87,0.00,,,0.00,Wunderground v.1.15,2013-07-11 11:58:00,
2013-07-11 08:08:00,65.0,61.0,30.00,North,355,2.0,2.0,87,0.00,,,0.00,Wunderground v.1.15,2013-07-11 12:08:00,
2013-07-11 08:13:00,65.2,60.9,30.00,NNE,15,2.0,4.0,86,0.00,,,0.00,Wunderground v.1.15,2013-07-11 12:13:00,
2013-07-11 08:23:00,65.6,60.6,30.00,NNW,336,4.0,5.0,84,0.00,,,0.00,Wunderground v.1.15,2013-07-11 12:23:00,
2013-07-11 08:33:00,66.3,60.3,30.00,North,11,5.0,5.0,81,0.00,,,0.00,Wunderground v.1.15,2013-07-11 12:33:00,
2013-07-11 08:43:00,67.2,60.5,30.00,North,9,5.0,5.0,79,0.00,,,0.00,Wunderground v.1.15,2013-07-11 12:43:00,
2013-07-11 08:53:00,68.2,60.3,30.00,NNE,24,6.0,8.0,76,0.00,,,0.00,Wunderground v.1.15,2013-07-11 12:53:00,
2013-07-11 09:03:00,68.8,59.0,30.00,NNE,27,7.0,9.0,71,0.00,,,0.00,Wunderground v.1.15,2013-07-11 13:03:00,
2013-07-11 09:13:00,69.4,58.8,30.00,NNE,19,6.0,7.0,69,0.00,,,0.00,Wunderground v.1.15,2013-07-11 13:13:00,
2013-07-11 09:23:00,69.8,60.0,30.01,NNE,15,6.0,6.0,71,0.00,,,0.00,Wunderground v.1.15,2013-07-11 13:23:00,
2013-07-11 09:33:00,70.3,58.8,30.01,NNE,32,7.0,9.0,67,0.00,,,0.00,Wunderground v.1.15,2013-07-11 13:33:00,
2013-07-11 09:43:00,70.6,58.3,30.01,NE,53,7.0,7.0,65,0.00,,,0.00,Wunderground v.1.15,2013-07-11 13:43:00,
2013-07-11 09:53:00,71.2,58.4,30.01,NNE,25,6.0,8.0,64,0.00,,,0.00,Wunderground v.1.15,2013-07-11 13:53:00,
2013-07-11 09:58:00,71.1,57.0,30.01,NNW,342,7.0,9.0,61,0.00,,,0.00,Wunderground v.1.15,2013-07-11 13:58:00,
2013-07-11 10:08:00,71.2,57.1,30.01,NE,44,9.0,9.0,61,0.00,,,0.00,Wunderground v.1.15,2013-07-11 14:08:00,
2013-07-11 10:13:00,71.1,57.9,30.01,NNE,26,9.0,9.0,63,0.00,,,0.00,Wunderground v.1.15,2013-07-11 14:13:00,
2013-07-11 10:23:00,71.5,57.8,30.01,ENE,59,9.0,11.0,62,0.00,,,0.00,Wunderground v.1.15,2013-07-11 14:23:00,
2013-07-11 10:33:00,72.0,57.8,30.01,NE,36,9.0,11.0,61,0.00,,,0.00,Wunderground v.1.15,2013-07-11 14:33:00,
2013-07-11 10:38:00,72.1,57.9,30.01,NNE,20,9.0,10.0,61,0.00,,,0.00,Wunderground v.1.15,2013-07-11 14:38:00,
2013-07-11 10:48:00,72.5,58.7,30.01,North,360,9.0,10.0,62,0.00,,,0.00,Wunderground v.1.15,2013-07-11 14:48:00,
2013-07-11 10:59:00,72.8,59.0,30.01,North,349,8.0,8.0,62,0.00,,,0.00,Wunderground v.1.15,2013-07-11 14:59:00,
2013-07-11 11:08:00,73.3,58.1,30.01,NNE,12,8.0,8.0,59,0.00,,,0.00,Wunderground v.1.15,2013-07-11 15:08:00,
2013-07-11 11:13:00,73.4,57.7,30.01,North,11,7.0,8.0,58,0.00,,,0.00,Wunderground v.1.15,2013-07-11 15:13:00,
2013-07-11 11:23:00,73.9,59.6,30.01,NNE,13,6.0,8.0,61,0.00,,,0.00,Wunderground v.1.15,2013-07-11 15:23:00,
2013-07-11 11:28:00,74.0,58.8,30.01,North,355,6.0,7.0,59,0.00,,,0.00,Wunderground v.1.15,2013-07-11 15:28:00,
2013-07-11 11:33:00,74.2,59.4,30.01,North,355,7.0,7.0,60,0.00,,,0.00,Wunderground v.1.15,2013-07-11 15:33:00,
2013-07-11 11:43:00,74.4,59.1,30.01,North,355,7.0,9.0,59,0.00,,,0.00,Wunderground v.1.15,2013-07-11 15:43:00,
2013-07-11 11:48:00,74.3,58.6,30.01,NE,55,6.0,9.0,58,0.00,,,0.00,Wunderground v.1.15,2013-07-11 15:48:00,
2013-07-11 11:58:00,73.0,58.8,30.01,NNE,17,5.0,5.0,61,0.00,,,0.00,Wunderground v.1.15,2013-07-11 15:58:00,
2013-07-11 12:08:00,73.3,59.0,30.01,ENE,59,6.0,9.0,61,0.00,,,0.00,Wunderground v.1.15,2013-07-11 16:08:00,
2013-07-11 12:13:00,74.1,58.4,30.01,NE,47,6.0,9.0,58,0.00,,,0.00,Wunderground v.1.15,2013-07-11 16:13:00,
2013-07-11 12:23:00,74.9,60.1,30.01,NE,40,6.0,7.0,60,0.00,,,0.00,Wunderground v.1.15,2013-07-11 16:23:00,
2013-07-11 12:38:00,75.2,59.9,30.01,North,349,8.0,8.0,59,0.00,,,0.00,Wunderground v.1.15,2013-07-11 16:38:00,
2013-07-11 12:48:00,74.6,60.3,30.01,SE,134,5.0,5.0,61,0.00,,,0.00,Wunderground v.1.15,2013-07-11 16:48:00,
2013-07-11 12:53:00,74.8,58.5,30.01,NNW,346,5.0,5.0,57,0.00,,,0.00,Wunderground v.1.15,2013-07-11 16:53:00,
2013-07-11 12:58:00,75.4,58.6,30.01,NNE,18,5.0,7.0,56,0.00,,,0.00,Wunderground v.1.15,2013-07-11 16:58:00,
2013-07-11 13:08:00,75.3,60.0,30.01,North,350,5.0,5.0,59,0.00,,,0.00,Wunderground v.1.15,2013-07-11 17:08:00,
2013-07-11 13:13:00,75.5,59.2,30.01,North,5,4.0,5.0,57,0.00,,,0.00,Wunderground v.1.15,2013-07-11 17:13:00,
2013-07-11 13:23:00,75.2,58.9,30.01,NNE,24,5.0,7.0,57,0.00,,,0.00,Wunderground v.1.15,2013-07-11 17:23:00,
2013-07-11 13:33:00,75.0,57.2,30.01,North,360,6.0,6.0,54,0.00,,,0.00,Wunderground v.1.15,2013-07-11 17:33:00,
2013-07-11 13:43:00,75.9,59.1,30.01,NNE,22,7.0,11.0,56,0.00,,,0.00,Wunderground v.1.15,2013-07-11 17:43:00,
2013-07-11 13:53:00,76.5,59.1,30.00,North,360,6.0,8.0,55,0.00,,,0.00,Wunderground v.1.15,2013-07-11 17:53:00,
2013-07-11 13:58:00,76.9,58.5,30.00,NE,34,5.0,5.0,53,0.00,,,0.00,Wunderground v.1.15,2013-07-11 17:58:00,
2013-07-11 14:08:00,77.5,59.0,30.00,ENE,63,6.0,8.0,53,0.00,,,0.00,Wunderground v.1.15,2013-07-11 18:08:00,
2013-07-11 14:18:00,76.3,57.4,30.00,NE,40,6.0,6.0,52,0.00,,,0.00,Wunderground v.1.15,2013-07-11 18:18:00,
2013-07-11 14:23:00,76.0,57.6,30.00,North,355,7.0,7.0,53,0.00,,,0.00,Wunderground v.1.15,2013-07-11 18:23:00,
2013-07-11 14:33:00,76.7,59.3,30.00,NNE,31,5.0,6.0,55,0.00,,,0.00,Wunderground v.1.15,2013-07-11 18:33:00,
2013-07-11 14:43:00,77.2,57.1,30.00,North,360,6.0,7.0,50,0.00,,,0.00,Wunderground v.1.15,2013-07-11 18:43:00,
2013-07-11 14:48:00,77.6,58.6,30.00,NNE,22,6.0,9.0,52,0.00,,,0.00,Wunderground v.1.15,2013-07-11 18:48:00,
2013-07-11 14:53:00,78.0,60.0,30.00,NNE,28,6.0,9.0,54,0.00,,,0.00,Wunderground v.1.15,2013-07-11 18:53:00,
2013-07-11 14:58:00,77.9,56.6,30.00,NNE,12,7.0,10.0,48,0.00,,,0.00,Wunderground v.1.15,2013-07-11 18:58:00,
2013-07-11 15:08:00,77.9,58.9,30.00,NNW,339,7.0,8.0,52,0.00,,,0.00,Wunderground v.1.15,2013-07-11 19:08:00,
2013-07-11 15:13:00,77.4,57.9,30.00,North,355,7.0,8.0,51,0.00,,,0.00,Wunderground v.1.15,2013-07-11 19:13:00,
2013-07-11 15:23:00,77.1,58.1,30.00,NNE,23,5.0,6.0,52,0.00,,,0.00,Wunderground v.1.15,2013-07-11 19:23:00,
2013-07-11 15:33:00,77.2,59.3,29.99,NNE,26,6.0,10.0,54,0.00,,,0.00,Wunderground v.1.15,2013-07-11 19:33:00,
2013-07-11 15:38:00,77.3,59.9,29.99,NNE,26,7.0,7.0,55,0.00,,,0.00,Wunderground v.1.15,2013-07-11 19:38:00,
2013-07-11 15:48:00,75.6,58.3,29.99,North,5,7.0,7.0,55,0.00,,,0.00,Wunderground v.1.15,2013-07-11 19:48:00,
2013-07-11 15:53:00,76.1,58.2,29.99,North,5,7.0,7.0,54,0.00,,,0.00,Wunderground v.1.15,2013-07-11 19:53:00,
2013-07-11 15:58:00,76.9,58.5,29.99,North,360,6.0,8.0,53,0.00,,,0.00,Wunderground v.1.15,2013-07-11 19:58:00,
2013-07-11 16:03:00,77.6,59.1,29.99,NNE,26,6.0,8.0,53,0.00,,,0.00,Wunderground v.1.15,2013-07-11 20:03:00,
2013-07-11 16:13:00,78.2,61.2,29.99,North,355,7.0,8.0,56,0.00,,,0.00,Wunderground v.1.15,2013-07-11 20:13:00,
2013-07-11 16:22:00,78.4,59.3,29.99,ENE,57,6.0,6.0,52,0.00,,,0.00,Wunderground v.1.15,2013-07-11 20:22:00,
2013-07-11 16:32:00,77.2,60.3,29.99,ENE,75,3.0,4.0,56,0.00,,,0.00,Wunderground v.1.15,2013-07-11 20:32:00,
2013-07-11 16:37:00,78.0,63.0,29.99,NE,55,2.0,5.0,60,0.00,,,0.00,Wunderground v.1.15,2013-07-11 20:37:00,
2013-07-11 16:47:00,76.3,59.4,29.99,ENE,78,6.0,6.0,56,0.00,,,0.00,Wunderground v.1.15,2013-07-11 20:47:00,
2013-07-11 16:58:00,74.2,59.9,29.99,East,80,4.0,5.0,61,0.00,,,0.00,Wunderground v.1.15,2013-07-11 20:58:00,
2013-07-11 17:07:00,73.5,59.7,29.99,SE,128,3.0,3.0,62,0.00,,,0.00,Wunderground v.1.15,2013-07-11 21:07:00,
2013-07-11 17:12:00,73.8,60.0,29.99,South,173,3.0,3.0,62,0.00,,,0.00,Wunderground v.1.15,2013-07-11 21:12:00,
2013-07-11 17:17:00,74.2,60.8,29.99,West,272,3.0,4.0,63,0.00,,,0.00,Wunderground v.1.15,2013-07-11 21:17:00,
2013-07-11 17:22:00,74.4,59.1,29.99,WNW,282,2.0,4.0,59,0.00,,,0.00,Wunderground v.1.15,2013-07-11 21:22:00,
2013-07-11 17:32:00,75.7,61.8,29.98,SE,136,2.0,4.0,62,0.00,,,0.00,Wunderground v.1.15,2013-07-11 21:32:00,
2013-07-11 17:37:00,76.0,59.7,29.98,SE,133,3.0,3.0,57,0.00,,,0.00,Wunderground v.1.15,2013-07-11 21:37:00,
2013-07-11 17:47:00,76.3,60.4,29.98,East,96,3.0,5.0,58,0.00,,,0.00,Wunderground v.1.15,2013-07-11 21:47:00,
2013-07-11 17:52:00,75.8,59.0,29.98,East,87,3.0,5.0,56,0.00,,,0.00,Wunderground v.1.15,2013-07-11 21:52:00,
2013-07-11 17:57:00,75.3,59.5,29.98,East,84,4.0,4.0,58,0.00,,,0.00,Wunderground v.1.15,2013-07-11 21:57:00,
2013-07-11 18:07:00,75.4,60.1,29.98,SSE,150,3.0,3.0,59,0.00,,,0.00,Wunderground v.1.15,2013-07-11 22:07:00,
2013-07-11 18:17:00,75.2,60.8,29.98,SE,136,2.0,5.0,61,0.00,,,0.00,Wunderground v.1.15,2013-07-11 22:17:00,
2013-07-11 18:22:00,75.0,61.1,29.98,SE,132,3.0,5.0,62,0.00,,,0.00,Wunderground v.1.15,2013-07-11 22:22:00,
2013-07-11 18:32:00,75.5,61.1,29.98,SE,128,2.0,4.0,61,0.00,,,0.00,Wunderground v.1.15,2013-07-11 22:32:00,
2013-07-11 18:37:00,75.3,60.9,29.98,ESE,107,3.0,4.0,61,0.00,,,0.00,Wunderground v.1.15,2013-07-11 22:37:00,
2013-07-11 18:47:00,74.3,59.0,29.98,ESE,116,3.0,3.0,59,0.00,,,0.00,Wunderground v.1.15,2013-07-11 22:47:00,
2013-07-11 18:57:00,74.1,60.2,29.98,SE,144,2.0,2.0,62,0.00,,,0.00,Wunderground v.1.15,2013-07-11 22:57:00,
2013-07-11 19:07:00,74.2,60.3,29.98,SE,134,1.0,1.0,62,0.00,,,0.00,Wunderground v.1.15,2013-07-11 23:07:00,
2013-07-11 19:12:00,74.6,60.3,29.98,SE,134,1.0,2.0,61,0.00,,,0.00,Wunderground v.1.15,2013-07-11 23:12:00,
2013-07-11 19:22:00,75.1,59.3,29.98,East,101,3.0,3.0,58,0.00,,,0.00,Wunderground v.1.15,2013-07-11 23:22:00,
2013-07-11 19:27:00,75.0,59.2,29.98,East,96,2.0,2.0,58,0.00,,,0.00,Wunderground v.1.15,2013-07-11 23:27:00,
2013-07-11 19:37:00,74.5,59.7,29.98,SE,142,1.0,1.0,60,0.00,,,0.00,Wunderground v.1.15,2013-07-11 23:37:00,
2013-07-11 19:47:00,74.6,59.3,29.98,SE,128,0.0,1.0,59,0.00,,,0.00,Wunderground v.1.15,2013-07-11 23:47:00,
2013-07-11 19:58:00,74.7,59.9,29.98,ESE,121,1.0,2.0,60,0.00,,,0.00,Wunderground v.1.15,2013-07-11 23:58:00,
2013-07-11 20:07:00,74.9,61.0,29.98,ESE,118,1.0,1.0,62,0.00,,,0.00,Wunderground v.1.15,2013-07-12 00:07:00,
2013-07-11 20:17:00,75.3,61.8,29.98,ESE,118,0.0,0.0,63,0.00,,,0.00,Wunderground v.1.15,2013-07-12 00:17:00,
2013-07-11 20:22:00,75.5,62.5,29.98,ESE,118,0.0,0.0,64,0.00,,,0.00,Wunderground v.1.15,2013-07-12 00:22:00,
2013-07-11 20:32:00,75.3,60.0,29.98,East,94,0.0,1.0,59,0.00,,,0.00,Wunderground v.1.15,2013-07-12 00:32:00,
2013-07-11 20:42:00,74.1,61.1,29.98,ENE,78,2.0,3.0,64,0.00,,,0.00,Wunderground v.1.15,2013-07-12 00:42:00,
2013-07-11 20:47:00,73.0,61.0,29.98,ENE,77,2.0,3.0,66,0.00,,,0.00,Wunderground v.1.15,2013-07-12 00:47:00,
2013-07-11 20:52:00,72.2,60.6,29.98,East,80,2.0,3.0,67,0.00,,,0.00,Wunderground v.1.15,2013-07-12 00:52:00,
2013-07-11 21:02:00,70.7,60.8,29.98,ENE,69,2.0,3.0,71,0.00,,,0.00,Wunderground v.1.15,2013-07-12 01:02:00,
2013-07-11 21:07:00,70.0,60.2,29.98,ENE,72,3.0,3.0,71,0.00,,,0.00,Wunderground v.1.15,2013-07-12 01:07:00,
2013-07-11 21:17:00,69.2,60.2,29.98,East,80,2.0,2.0,73,0.00,,,0.00,Wunderground v.1.15,2013-07-12 01:17:00,
2013-07-11 21:22:00,68.9,60.3,29.99,East,80,2.0,2.0,74,0.00,,,0.00,Wunderground v.1.15,2013-07-12 01:22:00,
2013-07-11 21:32:00,68.1,60.2,29.99,ENE,71,2.0,3.0,76,0.00,,,0.00,Wunderground v.1.15,2013-07-12 01:32:00,
2013-07-11 21:47:00,67.8,59.6,29.99,NE,55,3.0,3.0,75,0.00,,,0.00,Wunderground v.1.15,2013-07-12 01:47:00,
2013-07-11 21:57:00,67.3,60.2,30.00,ENE,57,4.0,7.0,78,0.00,,,0.00,Wunderground v.1.15,2013-07-12 01:57:00,
2013-07-11 22:12:00,68.8,61.3,30.00,ENE,70,7.0,9.0,77,0.00,,,0.00,Wunderground v.1.15,2013-07-12 02:12:00,
2013-07-11 22:22:00,69.1,61.2,30.00,ENE,61,6.0,6.0,76,0.00,,,0.00,Wunderground v.1.15,2013-07-12 02:22:00,
2013-07-11 22:32:00,68.9,60.6,30.01,ENE,68,5.0,7.0,75,0.00,,,0.00,Wunderground v.1.15,2013-07-12 02:32:00,
2013-07-11 22:42:00,68.7,60.5,30.01,NE,55,5.0,8.0,75,0.00,,,0.00,Wunderground v.1.15,2013-07-12 02:42:00,
2013-07-11 22:47:00,68.6,60.0,30.01,NE,48,5.0,5.0,74,0.00,,,0.00,Wunderground v.1.15,2013-07-12 02:47:00,
2013-07-11 22:57:00,68.5,60.3,30.01,NE,56,5.0,5.0,75,0.00,,,0.00,Wunderground v.1.15,2013-07-12 02:57:00,
2013-07-11 23:07:00,68.6,60.0,30.01,ENE,65,6.0,6.0,74,0.00,,,0.00,Wunderground v.1.15,2013-07-12 03:07:00,
2013-07-11 23:12:00,68.4,59.8,30.01,ENE,59,6.0,6.0,74,0.00,,,0.00,Wunderground v.1.15,2013-07-12 03:12:00,
2013-07-11 23:22:00,68.0,60.2,30.01,ENE,59,5.0,5.0,76,0.00,,,0.00,Wunderground v.1.15,2013-07-12 03:22:00,
2013-07-11 23:32:00,67.8,60.3,30.02,ENE,65,4.0,5.0,77,0.00,,,0.00,Wunderground v.1.15,2013-07-12 03:32:00,
2013-07-11 23:37:00,67.7,60.2,30.02,ENE,78,4.0,4.0,77,0.00,,,0.00,Wunderground v.1.15,2013-07-12 03:37:00,
2013-07-11 23:47:00,67.5,60.0,30.02,ENE,78,4.0,4.0,77,0.00,,,0.00,Wunderground v.1.15,2013-07-12 03:47:00,
2013-07-11 23:57:00,66.9,59.8,30.02,NE,55,4.0,5.0,78,0.00,,,0.00,Wunderground v.1.15,2013-07-12 03:57:00,